Time,TemperatureF,DewpointF,PressureIn,WindDirection,WindDirectionDegrees,WindSpeedMPH,WindSpeedGustMPH,Humidity,HourlyPrecipIn,Conditions,Clouds,dailyrainin,SolarRadiationWatts/m^2,SoftwareType,DateUTC
2013-03-17 00:03:00,24.0,20.0,-100.00,NNW,333,5.0,9.0,83,0.00,,,0.08,0.000000,,2013-03-17 04:03:00,
2013-03-17 00:33:00,24.0,19.0,-100.00,NW,325,5.0,9.0,81,0.00,,,0.08,0.000000,,2013-03-17 04:33:00,
2013-03-17 00:43:00,24.0,19.0,-100.00,NW,325,5.0,9.0,81,0.00,,,0.08,0.000000,,2013-03-17 04:43:00,
2013-03-17 00:53:00,24.0,19.0,-100.00,NW,325,5.0,9.0,81,0.00,,,0.08,0.000000,,2013-03-17 04:53:00,
2013-03-17 01:03:00,24.0,19.0,-100.00,NW,325,5.0,9.0,81,0.00,,,0.08,0.000000,,2013-03-17 05:03:00,
2013-03-17 01:32:00,23.0,17.0,-100.00,NW,315,4.0,8.0,79,0.00,,,0.08,0.000000,,2013-03-17 05:32:00,
2013-03-17 01:42:00,23.0,17.0,-100.00,NW,315,4.0,8.0,79,0.00,,,0.08,0.000000,,2013-03-17 05:42:00,
2013-03-17 01:52:00,23.0,17.0,-100.00,NW,315,4.0,8.0,79,0.00,,,0.08,0.000000,,2013-03-17 05:52:00,
2013-03-17 02:02:00,23.0,17.0,-100.00,NW,315,4.0,8.0,79,0.00,,,0.08,0.000000,,2013-03-17 06:02:00,
2013-03-17 02:32:00,21.0,17.0,-100.00,North,352,0.0,8.0,84,0.00,,,0.08,0.000000,,2013-03-17 06:32:00,
2013-03-17 02:42:00,21.0,17.0,-100.00,North,352,0.0,8.0,84,0.00,,,0.08,0.000000,,2013-03-17 06:42:00,
2013-03-17 02:53:00,21.0,17.0,-100.00,North,352,0.0,8.0,84,0.00,,,0.08,0.000000,,2013-03-17 06:53:00,
2013-03-17 03:02:00,21.0,17.0,-100.00,North,352,0.0,8.0,84,0.00,,,0.08,0.000000,,2013-03-17 07:02:00,
2013-03-17 03:32:00,18.0,15.0,-100.00,South,181,0.0,2.0,88,0.00,,,0.08,0.000000,,2013-03-17 07:32:00,
2013-03-17 03:42:00,18.0,15.0,-100.00,South,181,0.0,2.0,88,0.00,,,0.08,0.000000,,2013-03-17 07:42:00,
2013-03-17 03:52:00,18.0,15.0,-100.00,South,181,0.0,2.0,88,0.00,,,0.08,0.000000,,2013-03-17 07:52:00,
2013-03-17 04:03:00,18.0,15.0,-100.00,South,181,0.0,2.0,88,0.00,,,0.08,0.000000,,2013-03-17 08:03:00,
2013-03-17 04:33:00,20.0,17.0,-100.00,SSE,162,0.0,0.0,89,0.00,,,0.08,0.000000,,2013-03-17 08:33:00,
2013-03-17 04:42:00,20.0,17.0,-100.00,SSE,162,0.0,0.0,89,0.00,,,0.08,0.000000,,2013-03-17 08:42:00,
2013-03-17 04:52:00,20.0,17.0,-100.00,SSE,162,0.0,0.0,89,0.00,,,0.08,0.000000,,2013-03-17 08:52:00,
2013-03-17 05:03:00,20.0,17.0,-100.00,SSE,162,0.0,0.0,89,0.00,,,0.08,0.000000,,2013-03-17 09:03:00,
2013-03-17 05:33:00,21.0,17.0,-100.00,ESE,112,1.0,2.0,85,0.00,,,0.08,0.000000,,2013-03-17 09:33:00,
2013-03-17 05:43:00,21.0,17.0,-100.00,ESE,112,1.0,2.0,85,0.00,,,0.08,0.000000,,2013-03-17 09:43:00,
2013-03-17 05:53:00,21.0,17.0,-100.00,ESE,112,1.0,2.0,85,0.00,,,0.08,0.000000,,2013-03-17 09:53:00,
2013-03-17 06:03:00,21.0,17.0,-100.00,ESE,112,1.0,2.0,85,0.00,,,0.08,0.000000,,2013-03-17 10:03:00,
2013-03-17 06:33:00,22.0,19.0,-100.00,NNW,328,2.0,6.0,87,0.00,,,0.08,0.000000,,2013-03-17 10:33:00,
2013-03-17 06:42:00,22.0,19.0,-100.00,NNW,328,2.0,6.0,87,0.00,,,0.08,0.000000,,2013-03-17 10:42:00,
2013-03-17 06:53:00,22.0,19.0,-100.00,NNW,328,2.0,6.0,87,0.00,,,0.08,0.000000,,2013-03-17 10:53:00,
2013-03-17 07:03:00,22.0,19.0,-100.00,NNW,328,2.0,6.0,87,0.00,,,0.08,0.000000,,2013-03-17 11:03:00,
2013-03-17 07:32:00,21.0,17.0,-100.00,NE,48,1.0,4.0,85,0.00,,,0.08,0.000000,,2013-03-17 11:32:00,
2013-03-17 07:43:00,21.0,17.0,-100.00,NE,48,1.0,4.0,85,0.00,,,0.08,0.000000,,2013-03-17 11:43:00,
2013-03-17 07:52:00,21.0,17.0,-100.00,NE,48,1.0,4.0,85,0.00,,,0.08,0.000000,,2013-03-17 11:52:00,
2013-03-17 08:02:00,21.0,17.0,-100.00,NE,48,1.0,4.0,85,0.00,,,0.08,0.000000,,2013-03-17 12:02:00,
2013-03-17 08:33:00,21.0,18.0,-100.00,South,187,0.0,2.0,89,0.00,,,0.08,5.000000,,2013-03-17 12:33:00,
2013-03-17 08:43:00,21.0,18.0,-100.00,South,187,0.0,2.0,89,0.00,,,0.08,5.000000,,2013-03-17 12:43:00,
2013-03-17 08:52:00,21.0,18.0,-100.00,South,187,0.0,2.0,89,0.00,,,0.08,5.000000,,2013-03-17 12:52:00,
2013-03-17 09:02:00,21.0,18.0,-100.00,South,187,0.0,2.0,89,0.00,,,0.08,5.000000,,2013-03-17 13:02:00,
2013-03-17 09:33:00,26.0,20.0,-100.00,WNW,288,1.0,3.0,79,0.00,,,0.08,32.000000,,2013-03-17 13:33:00,
2013-03-17 09:43:00,26.0,20.0,-100.00,WNW,288,1.0,3.0,79,0.00,,,0.08,32.000000,,2013-03-17 13:43:00,
2013-03-17 09:53:00,26.0,20.0,-100.00,WNW,288,1.0,3.0,79,0.00,,,0.08,32.000000,,2013-03-17 13:53:00,
2013-03-17 10:02:00,26.0,20.0,-100.00,WNW,288,1.0,3.0,79,0.00,,,0.08,32.000000,,2013-03-17 14:02:00,
2013-03-17 10:33:00,27.0,21.0,-100.00,NW,320,4.0,7.0,77,0.01,,,0.09,65.000000,,2013-03-17 14:33:00,
2013-03-17 10:43:00,27.0,21.0,-100.00,NW,320,4.0,7.0,77,0.01,,,0.09,65.000000,,2013-03-17 14:43:00,
2013-03-17 10:53:00,27.0,21.0,-100.00,NW,320,4.0,7.0,77,0.01,,,0.09,65.000000,,2013-03-17 14:53:00,
2013-03-17 11:02:00,27.0,21.0,-100.00,NW,320,4.0,7.0,77,0.01,,,0.09,65.000000,,2013-03-17 15:02:00,
2013-03-17 11:33:00,27.0,20.0,-100.00,NW,316,5.0,8.0,75,0.00,,,0.06,55.000000,,2013-03-17 15:33:00,
2013-03-17 11:43:00,27.0,20.0,-100.00,NW,316,5.0,8.0,75,0.00,,,0.06,55.000000,,2013-03-17 15:43:00,
2013-03-17 11:53:00,27.0,20.0,-100.00,NW,316,5.0,8.0,75,0.00,,,0.06,55.000000,,2013-03-17 15:53:00,
2013-03-17 12:03:00,27.0,20.0,-100.00,NW,316,5.0,8.0,75,0.00,,,0.06,55.000000,,2013-03-17 16:03:00,
2013-03-17 12:34:00,28.0,17.0,-100.00,NNW,337,4.0,10.0,62,0.00,,,0.02,81.000000,,2013-03-17 16:34:00,
2013-03-17 12:43:00,28.0,17.0,-100.00,NNW,337,4.0,10.0,62,0.00,,,0.02,81.000000,,2013-03-17 16:43:00,
2013-03-17 12:53:00,28.0,17.0,-100.00,NNW,337,4.0,10.0,62,0.00,,,0.02,81.000000,,2013-03-17 16:53:00,
2013-03-17 13:03:00,28.0,17.0,-100.00,NNW,337,4.0,10.0,62,0.00,,,0.02,81.000000,,2013-03-17 17:03:00,
2013-03-17 13:33:00,35.0,15.0,-100.00,NNE,16,3.0,11.0,44,0.00,,,0.01,162.000000,,2013-03-17 17:33:00,
2013-03-17 13:42:00,35.0,15.0,-100.00,NNE,16,3.0,11.0,44,0.00,,,0.01,162.000000,,2013-03-17 17:42:00,
2013-03-17 13:53:00,35.0,15.0,-100.00,NNE,16,3.0,11.0,44,0.00,,,0.01,162.000000,,2013-03-17 17:53:00,
2013-03-17 14:02:00,35.0,15.0,-100.00,NNE,16,3.0,11.0,44,0.00,,,0.01,162.000000,,2013-03-17 18:02:00,
2013-03-17 14:32:00,33.0,13.0,-100.00,NNW,334,5.0,13.0,43,0.00,,,0.01,302.000000,,2013-03-17 18:32:00,
2013-03-17 14:42:00,33.0,13.0,-100.00,NNW,334,5.0,13.0,43,0.00,,,0.01,302.000000,,2013-03-17 18:42:00,
2013-03-17 14:52:00,33.0,13.0,-100.00,NNW,334,5.0,13.0,43,0.00,,,0.01,302.000000,,2013-03-17 18:52:00,
2013-03-17 15:02:00,33.0,13.0,-100.00,NNW,334,5.0,13.0,43,0.00,,,0.01,302.000000,,2013-03-17 19:02:00,
2013-03-17 15:33:00,34.0,14.0,-100.00,NW,323,4.0,11.0,44,0.00,,,0.01,356.000000,,2013-03-17 19:33:00,
2013-03-17 15:42:00,34.0,14.0,-100.00,NW,323,4.0,11.0,44,0.00,,,0.01,356.000000,,2013-03-17 19:42:00,
2013-03-17 15:53:00,34.0,14.0,-100.00,NW,323,4.0,11.0,44,0.00,,,0.01,356.000000,,2013-03-17 19:53:00,
2013-03-17 16:02:00,34.0,14.0,-100.00,NW,323,4.0,11.0,44,0.00,,,0.01,356.000000,,2013-03-17 20:02:00,
2013-03-17 16:33:00,35.0,16.0,-100.00,NW,309,4.0,10.0,45,0.00,,,0.01,270.000000,,2013-03-17 20:33:00,
2013-03-17 16:43:00,35.0,16.0,-100.00,NW,309,4.0,10.0,45,0.00,,,0.01,270.000000,,2013-03-17 20:43:00,
2013-03-17 16:52:00,35.0,16.0,-100.00,NW,309,4.0,10.0,45,0.00,,,0.01,270.000000,,2013-03-17 20:52:00,
2013-03-17 17:03:00,35.0,16.0,-100.00,NW,309,4.0,10.0,45,0.00,,,0.01,270.000000,,2013-03-17 21:03:00,
2013-03-17 17:33:00,33.0,13.0,-100.00,WNW,294,4.0,10.0,44,0.00,,,0.01,204.000000,,2013-03-17 21:33:00,
2013-03-17 17:43:00,33.0,13.0,-100.00,WNW,294,4.0,10.0,44,0.00,,,0.01,204.000000,,2013-03-17 21:43:00,
2013-03-17 17:53:00,33.0,13.0,-100.00,WNW,294,4.0,10.0,44,0.00,,,0.01,204.000000,,2013-03-17 21:53:00,
2013-03-17 18:03:00,33.0,13.0,-100.00,WNW,294,4.0,10.0,44,0.00,,,0.01,204.000000,,2013-03-17 22:03:00,
2013-03-17 18:33:00,31.0,12.0,-100.00,NW,309,5.0,10.0,45,0.00,,,0.01,125.000000,,2013-03-17 22:33:00,
2013-03-17 18:42:00,31.0,12.0,-100.00,NW,309,5.0,10.0,45,0.00,,,0.01,125.000000,,2013-03-17 22:42:00,
2013-03-17 18:53:00,31.0,12.0,-100.00,NW,309,5.0,10.0,45,0.00,,,0.01,125.000000,,2013-03-17 22:53:00,
2013-03-17 19:03:00,31.0,12.0,-100.00,NW,309,5.0,10.0,45,0.00,,,0.01,125.000000,,2013-03-17 23:03:00,
2013-03-17 19:33:00,28.0,13.0,-100.00,WNW,303,4.0,9.0,53,0.00,,,0.01,57.000000,,2013-03-17 23:33:00,
2013-03-17 19:43:00,28.0,13.0,-100.00,WNW,303,4.0,9.0,53,0.00,,,0.01,57.000000,,2013-03-17 23:43:00,
2013-03-17 19:53:00,28.0,13.0,-100.00,WNW,303,4.0,9.0,53,0.00,,,0.01,57.000000,,2013-03-17 23:53:00,
2013-03-17 20:03:00,28.0,13.0,-100.00,WNW,303,4.0,9.0,53,0.00,,,0.01,57.000000,,2013-03-18 00:03:00,
2013-03-17 21:33:00,24.0,14.0,-100.00,SSE,165,0.0,3.0,64,-99.99,,,0.01,0.000000,,2013-03-18 01:33:00,
2013-03-17 21:42:00,24.0,14.0,-100.00,SSE,165,0.0,3.0,64,-99.99,,,0.01,0.000000,,2013-03-18 01:42:00,
2013-03-17 21:52:00,24.0,14.0,-100.00,SSE,165,0.0,3.0,64,-99.99,,,0.01,0.000000,,2013-03-18 01:52:00,
2013-03-17 22:02:00,24.0,14.0,-100.00,SSE,165,0.0,3.0,64,-99.99,,,0.01,0.000000,,2013-03-18 02:02:00,
2013-03-17 22:32:00,22.0,13.0,-100.00,ESE,110,0.0,2.0,68,0.00,,,0.01,0.000000,,2013-03-18 02:32:00,
2013-03-17 22:42:00,22.0,13.0,-100.00,ESE,110,0.0,2.0,68,0.00,,,0.01,0.000000,,2013-03-18 02:42:00,
2013-03-17 22:52:00,22.0,13.0,-100.00,ESE,110,0.0,2.0,68,0.00,,,0.01,0.000000,,2013-03-18 02:52:00,
2013-03-17 23:03:00,22.0,13.0,-100.00,ESE,110,0.0,2.0,68,0.00,,,0.01,0.000000,,2013-03-18 03:03:00,
2013-03-17 23:33:00,20.0,13.0,-100.00,NNW,331,0.0,3.0,75,0.00,,,0.01,0.000000,,2013-03-18 03:33:00,
2013-03-17 23:42:00,20.0,13.0,-100.00,NNW,331,0.0,3.0,75,0.00,,,0.01,0.000000,,2013-03-18 03:42:00,
2013-03-17 23:53:00,20.0,13.0,-100.00,NNW,331,0.0,3.0,75,0.00,,,0.01,0.000000,,2013-03-18 03:53:00,